GFSSGP_250_rhum_060.txt.gz
RH
46 39 31 28 25 22 24 21 14 21 16 13 11 10 8 7 8 10 13 12 12 14 16 16 14 13 13 16 20 20 23 25 26 24 20 19 18 18 19 20 22 25 26 36 38 39 41 34 28
54 40 32 28 26 33 36 24 16 17 28 24 22 12 9 10 10 10 9 9 8 8 10 13 12 12 10 10 13 21 24 24 26 27 24 23 20 19 19 19 19 21 22 23 27 28 24 24 28
68 45 35 28 29 36 44 25 22 24 25 29 16 17 13 18 13 12 11 9 10 10 8 8 8 9 10 10 10 14 18 22 22 24 26 26 26 26 24 22 23 22 22 25 27 28 28 27 28
80 57 40 35 36 39 41 25 29 37 40 35 25 22 16 21 14 12 13 14 16 15 12 11 10 11 11 13 11 10 12 15 18 21 23 26 28 28 30 30 31 30 32 28 28 30 34 39 45
61 66 55 43 42 39 36 26 28 36 42 36 28 22 19 27 26 24 19 18 21 19 20 18 18 19 16 14 14 14 13 13 12 13 15 19 22 28 31 34 36 43 46 40 38 42 49 46 42
47 47 47 47 57 42 38 32 30 32 39 33 27 30 27 35 40 33 26 26 24 24 26 23 21 20 21 19 17 18 20 18 19 20 19 19 19 22 26 33 40 49 55 57 58 56 56 65 70
40 42 46 62 49 42 47 36 33 33 34 34 28 26 27 35 38 36 30 27 34 31 27 26 23 23 24 23 20 19 19 20 24 26 25 31 34 34 34 31 29 32 38 47 44 52 58 61 63
65 51 61 69 56 80 68 46 36 33 34 30 29 28 32 30 27 28 32 29 29 27 26 26 24 22 22 22 22 22 21 21 24 25 26 28 31 34 38 39 41 40 40 40 45 52 57 68 82
71 66 60 76 78 100 64 52 44 40 38 36 33 29 27 29 26 25 24 25 24 24 24 25 24 24 25 25 25 24 24 27 28 31 24 23 27 32 33 32 37 43 50 52 56 67 80 86 80
95 86 97 100 100 100 77 62 50 49 43 43 39 35 30 28 30 29 29 28 26 25 25 28 26 26 26 28 28 26 26 29 29 28 28 25 29 35 36 36 41 51 55 64 73 78 85 82 75
100 96 100 100 100 93 74 71 57 62 49 58 51 53 40 36 38 31 35 41 46 47 44 38 36 32 31 34 36 32 33 31 33 27 24 26 28 29 31 39 46 44 50 60 66 79 74 70 58
100 100 100 100 100 98 87 74 74 73 72 77 60 49 54 48 56 74 60 57 55 52 48 43 44 45 48 46 40 34 30 29 29 30 28 30 31 39 40 37 38 40 40 44 43 44 49 47 46
100 100 100 100 100 100 96 82 92 95 100 83 69 52 48 60 68 76 69 68 66 59 52 49 49 52 47 44 42 42 39 37 36 42 46 40 38 34 31 28 27 26 24 24 24 28 31 32 32
100 100 100 100 100 100 100 100 97 100 98 85 85 76 78 94 79 57 71 68 60 59 52 48 50 43 38 37 37 38 42 46 42 41 44 42 33 28 25 22 23 20 19 18 18 20 20 20 21
100 100 100 100 100 100 100 100 100 100 89 89 85 89 79 82 96 78 65 65 60 51 54 60 62 58 55 53 42 36 34 37 36 32 31 28 23 19 17 15 15 15 15 15 15 16 15 14 14
92 100 100 100 100 100 100 100 100 100 100 100 100 100 100 100 95 97 82 73 56 51 42 44 52 59 53 52 52 58 64 46 37 34 33 26 20 18 19 21 18 18 18 18 19 18 18 17 17
100 100 100 100 100 100 100 100 100 100 100 100 100 99 100 100 100 93 83 68 63 59 58 48 44 48 49 46 48 52 81 87 70 48 40 41 30 21 20 21 22 23 23 19 19 20 21 20 18
100 100 100 100 100 100 100 100 100 100 100 100 100 100 98 92 94 98 91 93 83 64 48 37 39 43 44 52 67 67 76 83 62 54 42 35 33 38 36 32 30 31 28 29 29 29 29 27 22
100 100 100 100 100 100 100 100 100 100 100 100 100 100 100 96 86 76 82 77 66 50 44 48 44 48 43 50 68 67 67 92 99 86 72 56 37 34 49 49 36 35 39 36 33 31 28 27 27
90 100 100 100 100 100 100 100 100 100 100 100 100 100 100 100 91 90 79 67 54 51 52 54 57 53 54 50 49 50 62 73 84 97 100 100 97 72 74 79 82 73 64 47 35 29 29 28 26
99 99 100 100 100 100 100 100 100 100 100 100 100 100 100 100 99 86 74 60 53 57 61 66 56 54 61 70 64 58 60 75 82 86 100 100 100 100 94 71 57 63 61 54 45 51 53 47 28
95 95 100 100 100 100 100 100 100 100 100 100 100 100 100 100 90 72 61 60 72 64 64 72 76 70 64 73 80 79 66 52 58 55 69 87 71 84 98 80 70 89 99 73 69 68 40 31 28
97 100 94 92 100 100 100 100 100 100 100 100 100 100 100 88 63 55 58 58 73 71 73 75 86 82 60 53 80 88 84 74 65 57 64 85 96 100 100 100 100 97 91 79 81 63 43 36 35
87 87 88 94 96 100 100 100 100 100 100 100 99 91 80 63 60 62 65 62 53 57 70 99 99 99 82 62 51 54 71 72 67 59 52 54 67 79 96 100 100 100 95 76 69 59 50 41 41
100 92 90 90 92 100 100 100 99 100 100 94 92 86 71 60 63 69 68 58 59 68 92 91 87 92 79 59 55 67 67 68 72 70 59 66 68 78 85 83 88 100 89 69 66 59 61 54 45
100 94 94 95 89 94 100 100 84 100 100 100 80 68 79 78 66 65 73 73 96 100 88 86 86 68 72 69 68 58 60 60 66 68 69 66 66 64 80 100 100 100 93 79 74 74 71 66 51
100 100 97 84 86 87 97 95 88 83 84 87 87 90 84 81 98 92 87 100 95 88 70 64 59 56 62 78 78 59 54 52 52 56 61 62 60 57 51 83 100 100 100 86 96 94 90 77 62
97 100 100 97 89 85 72 66 68 78 80 88 100 100 100 88 99 98 85 76 67 66 70 75 87 97 88 79 76 67 56 54 56 60 61 61 58 53 67 82 100 100 100 99 91 97 98 88 66
86 83 94 97 100 96 86 92 78 78 77 82 86 85 86 80 78 77 69 72 77 78 75 75 74 72 72 74 74 69 59 45 37 37 41 44 41 49 71 92 98 100 100 100 100 100 100 96 84
92 87 73 76 81 81 84 91 91 85 94 100 97 85 84 91 99 100 100 100 88 77 69 65 49 27 27 32 35 40 41 44 49 50 46 61 65 56 59 65 90 97 88 98 100 100 92 96 98

GFSSGP_250_rhum_063.txt.gz
RH
72 78 83 66 51 36 27 21 18 18 16 11 9 10 11 13 15 16 18 19 19 19 20 23 25 23 20 19 18 19 19 19 19 20 18 18 19 19 18 18 18 18 19 21 19 22 31 35 37
61 67 77 75 62 51 37 24 23 17 19 12 9 9 9 9 10 11 12 14 16 16 16 17 19 21 20 19 17 15 14 14 16 18 19 20 21 23 22 19 18 18 17 18 20 21 23 25 25
56 62 76 70 61 65 58 39 23 22 21 16 12 11 11 12 9 9 9 10 11 10 10 11 11 12 14 16 15 13 12 11 12 15 20 21 22 22 22 22 23 23 23 21 20 20 20 20 22
54 57 60 71 68 67 61 40 31 31 24 18 15 13 17 12 12 11 10 10 10 10 9 8 9 9 9 9 8 9 9 9 10 11 12 15 18 20 22 25 26 26 28 30 30 29 30 33 33
47 45 56 72 83 69 59 43 33 32 31 25 18 17 21 20 20 20 19 14 15 14 13 12 10 10 11 12 12 13 12 13 13 13 14 13 13 14 16 19 21 24 26 25 32 39 40 44 49
50 42 45 89 100 90 67 44 35 33 31 30 25 20 18 25 27 28 29 28 29 25 21 18 16 15 15 15 17 17 18 20 20 18 18 17 17 16 16 15 16 19 22 24 27 30 34 40 49
57 52 43 93 100 93 80 56 42 35 33 35 29 24 34 39 44 37 27 25 28 30 26 25 23 21 22 25 25 22 21 22 22 22 20 18 19 18 18 20 20 19 19 21 22 24 27 30 33
55 63 58 70 100 100 89 71 51 43 41 39 28 27 33 37 38 40 33 28 28 30 30 29 29 29 31 32 27 23 22 21 20 19 18 18 18 17 19 21 19 22 21 19 22 27 28 29 31
55 58 68 64 94 98 83 79 72 61 50 43 36 33 32 36 38 38 37 32 28 29 29 29 29 30 29 28 28 26 24 22 22 20 20 18 18 17 17 18 17 19 24 19 20 26 30 35 36
79 55 79 97 79 68 61 66 63 69 62 52 43 38 35 38 40 37 40 36 32 30 28 29 26 26 24 23 23 22 22 23 24 22 20 19 20 21 20 21 22 22 23 24 23 22 30 40 42
100 98 100 100 99 61 48 55 54 47 62 63 61 54 46 39 44 39 35 32 29 29 29 28 28 28 27 27 28 29 29 30 30 26 24 22 24 26 25 26 26 24 26 28 32 31 34 41 42
100 100 100 100 100 100 62 49 52 48 62 93 98 85 73 49 51 48 41 38 36 35 33 33 31 31 32 34 36 43 42 38 32 32 33 36 35 32 28 24 26 25 26 31 36 36 35 33 30
92 100 100 100 100 100 100 81 66 63 78 94 100 100 88 68 71 61 51 46 45 38 36 41 44 42 48 57 57 57 50 47 43 42 41 36 34 33 31 30 30 35 41 38 36 36 31 28 27
100 100 100 100 100 100 100 99 84 100 100 90 96 100 88 87 85 81 77 66 62 58 66 60 58 52 60 65 64 56 51 50 47 42 39 37 34 34 36 39 37 39 38 42 40 32 28 22 22
100 100 100 100 100 100 100 100 100 100 100 94 96 95 84 82 86 97 87 76 76 83 79 69 70 71 77 65 63 56 53 53 54 47 52 46 43 42 38 35 35 34 31 28 25 21 18 15 15
100 100 100 100 100 100 100 100 100 100 100 100 100 100 100 100 100 100 84 93 100 93 85 78 81 84 78 83 69 57 52 61 72 67 65 61 56 57 55 46 38 34 37 32 22 18 20 20 17
100 100 100 100 100 100 100 100 100 100 100 100 100 100 100 100 100 100 100 96 83 85 97 95 80 72 69 65 70 67 67 71 72 64 74 73 67 63 70 63 52 44 37 33 26 24 24 24 24
100 100 100 100 100 100 100 100 100 100 100 100 100 100 100 100 100 100 100 100 97 85 84 89 83 76 72 68 69 66 60 56 71 82 97 92 87 91 88 77 64 57 52 56 49 49 44 32 29
100 100 100 100 100 100 100 100 100 100 100 100 100 100 100 100 100 100 100 100 99 91 84 83 90 90 84 72 63 50 35 45 56 88 95 99 97 96 94 88 80 85 77 78 71 78 75 72 64
100 100 100 100 100 100 100 100 100 100 100 100 100 100 100 100 100 100 100 100 86 83 83 78 71 62 63 63 56 52 44 51 62 78 85 97 89 95 100 100 96 95 76 93 100 95 78 62 56
96 100 100 100 100 100 100 100 100 100 100 100 100 100 100 100 100 100 98 100 100 97 79 70 62 55 62 62 53 47 46 55 66 87 77 80 96 100 100 100 100 100 97 100 94 84 69 62 54
79 97 100 100 100 100 100 100 100 100 100 100 100 100 100 100 100 100 100 100 100 100 100 87 80 73 66 59 53 61 64 60 53 42 45 65 78 81 91 100 100 100 100 98 99 96 86 78 55
67 89 99 100 100 100 100 100 100 100 100 100 100 100 100 100 100 100 100 100 100 100 100 100 87 70 61 57 62 70 68 75 89 68 54 61 74 84 97 100 100 100 100 100 100 100 100 87 73
80 84 94 88 97 100 100 100 100 100 100 100 100 100 100 100 100 100 100 100 100 100 100 93 77 67 60 54 53 55 58 74 93 93 74 72 74 68 82 97 98 85 80 99 100 100 100 95 84
92 80 85 78 82 90 100 100 100 100 100 100 100 100 100 100 100 100 100 100 100 100 100 87 75 69 61 70 66 54 53 71 87 84 73 74 65 50 61 64 62 69 71 74 95 100 100 100 100
100 84 86 100 91 93 95 96 100 100 100 100 100 100 100 100 100 100 100 100 100 98 94 82 72 86 72 71 68 70 75 76 64 70 96 80 65 71 74 65 84 92 98 90 85 100 100 100 100
100 100 97 77 84 88 89 88 99 100 100 100 100 99 95 98 100 100 86 74 70 80 78 69 60 66 67 82 69 76 86 76 70 71 70 72 75 86 88 75 78 78 74 88 86 79 76 91 97
100 100 100 96 75 70 80 86 85 90 98 100 100 100 100 99 92 76 62 62 73 79 75 80 88 82 62 74 80 75 74 70 62 66 69 76 80 85 87 93 90 84 81 84 84 79 79 82 87
99 96 100 100 100 84 71 64 71 83 94 97 96 94 91 85 76 64 67 72 72 72 73 71 67 64 62 65 67 64 64 66 67 63 74 80 82 72 73 78 75 72 74 71 73 78 97 100 100
98 100 100 100 100 97 100 77 64 65 68 68 72 72 70 72 69 65 74 77 74 75 73 72 65 67 69 71 73 69 67 76 80 73 71 71 68 63 65 66 67 62 58 58 62 66 90 100 98

GFSSGP_250_rhum_069.txt.gz
RH
48 42 32 19 20 22 27 26 23 21 21 22 20 20 23 28 33 45 39 36 35 32 30 32 26 25 24 25 24 21 19 18 16 15 15 20 26 21 17 16 16 17 17 17 18 18 18 19 20
48 52 47 40 20 25 27 27 24 19 20 21 18 17 19 21 26 30 30 32 35 33 31 31 31 29 31 30 26 24 24 22 22 24 25 24 18 15 15 14 13 13 15 16 17 19 21 20 21
53 53 58 43 36 44 44 31 24 22 18 21 20 19 21 21 21 22 24 26 27 26 27 28 30 31 31 30 30 30 28 27 26 25 24 22 19 18 17 12 13 14 14 16 17 17 17 17 17
68 50 58 66 49 52 54 42 35 29 21 18 20 22 25 21 20 21 20 20 20 22 23 23 23 23 23 23 23 22 23 24 24 24 23 19 18 15 12 13 15 17 20 20 20 19 19 18 18
61 46 43 68 69 65 59 48 40 42 36 23 19 24 27 25 25 23 20 18 18 17 18 18 19 18 18 18 18 17 15 15 15 13 12 11 11 12 14 16 15 16 17 18 18 17 16 16 16
52 46 42 68 96 77 76 60 53 48 38 35 29 33 38 41 32 26 21 19 18 17 16 16 15 15 14 14 14 12 12 12 12 12 12 13 14 15 16 18 19 18 19 19 20 20 19 19 19
53 47 45 78 100 100 98 71 63 59 44 34 35 33 47 51 48 38 29 25 20 17 16 15 14 12 12 13 14 13 12 13 13 13 14 15 16 16 17 18 20 21 21 20 19 19 18 19 19
59 55 64 68 100 100 100 64 53 55 60 45 55 62 63 54 60 55 42 42 34 25 18 16 15 16 16 16 17 16 18 17 16 16 16 19 18 19 20 22 22 22 22 21 21 20 20 19 18
63 54 55 88 100 100 99 66 42 43 65 56 63 75 66 58 55 65 56 46 38 31 29 26 24 24 25 26 25 25 24 24 23 22 20 21 21 21 23 25 25 23 23 22 23 22 20 19 17
70 66 76 100 100 100 88 75 56 46 53 55 59 80 70 64 63 63 57 49 40 33 31 29 28 29 26 24 26 29 30 27 26 30 28 26 24 25 25 24 25 26 25 26 25 22 21 23 22
56 80 91 100 100 100 89 77 60 46 45 58 74 73 78 65 70 72 60 54 47 41 35 30 28 27 26 26 28 29 30 32 29 31 32 28 27 26 26 28 28 27 27 28 25 26 28 29 28
76 81 89 100 100 100 98 86 74 59 62 67 84 84 81 60 71 85 78 65 54 48 40 37 32 32 32 33 32 32 31 31 32 33 32 30 30 30 29 28 29 31 33 32 34 33 37 38 37
76 97 100 100 100 100 98 90 83 76 61 65 76 84 70 76 62 78 86 86 82 68 60 54 44 40 36 37 36 37 36 35 35 35 34 35 34 35 34 39 40 42 44 47 43 47 46 42 37
54 100 100 100 100 100 100 98 85 84 63 64 72 80 72 76 67 67 76 81 80 77 75 75 64 57 54 52 49 45 42 44 44 44 44 47 43 46 46 49 52 50 53 52 56 56 51 40 34
15 70 100 100 100 100 100 100 100 89 66 76 84 84 86 86 75 68 67 86 85 76 78 74 79 74 66 60 53 52 62 59 62 60 56 50 46 48 50 55 63 54 57 68 70 52 41 32 28
13 17 63 94 100 100 100 100 95 76 94 100 95 84 89 88 94 76 82 81 78 76 79 73 66 62 60 60 59 66 65 60 55 63 58 54 52 60 61 61 58 58 72 63 56 45 34 28 34
10 15 38 100 98 100 100 100 95 91 97 100 100 100 100 100 100 100 100 98 85 82 88 78 65 65 73 70 61 76 84 79 81 74 76 80 73 74 80 79 75 74 74 54 41 35 30 35 55
11 18 29 80 100 97 100 100 100 100 100 100 100 100 100 100 100 100 100 100 95 95 100 99 97 96 98 93 90 90 91 89 93 98 99 98 92 86 91 78 79 75 62 50 42 40 40 71 80
12 12 37 97 100 100 100 100 100 100 100 100 100 100 100 100 100 100 100 100 97 99 100 100 100 100 100 100 100 99 96 100 100 100 96 90 84 86 84 77 75 70 61 54 48 44 50 63 61
14 14 23 81 100 100 100 98 100 100 100 100 100 100 100 100 100 100 100 100 100 100 100 100 100 100 100 100 100 100 100 100 100 98 93 94 89 87 73 67 62 56 59 51 50 56 63 76 75
15 16 17 49 100 100 100 100 100 100 100 100 100 100 97 100 100 100 100 100 100 100 100 100 100 100 100 100 100 100 100 100 100 98 90 83 74 65 63 59 58 56 56 58 62 62 58 70 71
18 18 17 25 82 100 100 100 100 100 100 100 100 100 100 100 99 100 100 100 100 100 100 100 100 100 100 100 100 100 100 100 100 98 97 97 91 76 62 60 62 64 62 68 63 60 59 62 71
21 20 20 24 63 100 100 100 100 100 100 96 96 98 88 84 96 100 100 100 100 100 100 100 100 100 100 100 100 100 100 100 100 100 100 100 94 84 76 78 80 73 73 82 71 74 70 89 85
21 21 23 35 67 94 100 100 100 100 100 100 99 88 83 80 94 100 100 100 100 100 100 100 100 100 100 100 100 100 100 100 100 100 100 100 93 85 82 85 89 95 91 82 80 86 66 64 58
20 24 23 31 66 100 100 100 100 100 100 100 100 100 100 95 97 100 100 100 100 100 100 100 93 96 100 100 100 100 100 100 100 100 100 100 99 96 95 88 88 90 94 97 97 95 99 95 86
19 20 23 26 51 84 97 100 100 100 100 100 100 100 100 100 100 100 100 96 98 98 100 100 100 99 100 100 100 100 99 100 100 100 100 100 100 100 100 99 90 89 88 93 99 100 100 98 94
19 24 20 23 43 81 92 100 100 100 100 100 100 100 100 100 100 100 100 100 100 100 100 100 100 98 100 100 100 100 100 100 100 100 100 100 100 100 100 100 99 93 97 99 100 100 100 97 92
29 39 36 33 34 72 82 98 100 100 100 100 100 100 100 100 100 100 100 100 99 100 100 100 100 100 100 100 100 100 100 100 99 97 97 96 93 89 92 97 98 97 99 100 100 100 100 91 93
34 49 51 44 39 51 74 86 96 100 100 100 100 100 100 100 100 100 100 100 100 100 100 99 97 98 99 100 100 98 90 84 84 82 78 78 76 70 76 75 79 83 99 100 100 100 100 100 100
67 63 73 88 84 58 54 74 78 92 100 100 100 100 100 100 100 100 100 100 100 100 100 96 93 94 93 88 86 87 84 71 64 66 67 64 59 60 52 60 72 78 88 99 100 100 100 100 100

GFSSGP_250_rhum_075.txt.gz
RH
51 52 41 33 30 28 37 36 41 43 42 53 65 56 50 55 45 36 43 46 45 45 42 37 40 36 33 31 33 37 46 55 57 54 50 50 41 28 20 19 18 23 22 17 15 17 12 12 13
45 54 54 36 31 26 34 38 38 36 38 52 63 63 56 42 44 47 38 43 45 50 51 43 37 36 32 30 32 35 40 42 41 41 36 28 23 20 20 22 25 22 20 19 19 17 13 13 14
41 47 50 42 32 29 30 31 36 29 34 39 45 58 57 48 44 48 36 35 36 42 49 53 46 38 36 36 36 36 37 38 37 34 29 26 22 22 27 28 28 24 22 20 16 13 12 15 18
70 38 41 41 36 33 34 30 28 27 32 32 41 38 44 52 41 40 34 35 36 35 39 42 43 44 40 38 36 36 35 34 35 34 31 28 27 26 26 25 23 20 18 14 12 13 17 19 19
49 55 37 37 37 41 42 31 26 26 27 28 31 31 34 36 36 34 29 28 33 33 34 38 43 45 42 40 41 40 40 35 32 30 27 27 25 23 22 21 18 16 15 14 14 16 18 19 20
36 73 61 41 39 49 41 35 28 24 25 24 29 29 28 32 33 32 30 28 29 29 29 32 32 37 35 32 35 34 33 31 29 28 26 23 21 20 18 15 14 14 15 16 18 20 22 22 20
39 32 87 65 46 45 42 33 29 26 27 25 23 33 29 28 30 31 30 29 27 28 28 25 25 26 25 26 28 26 25 24 23 22 21 19 18 16 15 15 15 16 17 20 19 18 19 20 22
37 37 36 95 54 46 47 41 30 25 28 24 23 26 31 26 27 28 29 29 27 24 23 27 25 25 24 23 23 23 21 20 20 18 17 17 16 16 17 18 19 20 21 20 20 21 22 26 25
40 35 36 53 99 60 47 43 35 27 28 24 26 26 22 31 29 27 26 25 25 24 22 22 24 26 27 27 24 21 20 19 18 18 19 18 17 18 20 20 22 21 22 25 27 28 29 31 32
42 42 42 80 94 94 54 48 43 41 33 28 30 27 29 29 28 28 26 24 23 24 26 26 27 31 34 32 32 32 33 26 25 26 27 25 23 21 22 24 25 28 34 36 35 35 36 36 35
32 45 65 63 64 86 74 79 51 46 49 40 32 31 30 29 29 29 28 28 25 23 25 27 28 41 46 46 44 44 51 48 43 38 35 31 28 27 29 30 34 36 38 36 37 41 38 33 30
14 78 58 52 50 74 94 100 100 55 48 46 38 32 30 29 32 36 37 40 34 31 38 44 43 47 46 50 57 61 65 60 51 46 44 42 39 39 38 41 37 46 45 44 48 41 34 32 30
12 37 61 55 54 56 72 97 100 80 58 45 39 39 38 37 38 43 45 50 54 53 53 61 55 56 60 63 63 65 68 64 60 59 54 52 55 53 52 48 50 51 54 48 41 36 35 37 36
11 14 33 66 60 52 55 84 100 100 69 59 47 41 42 42 44 47 51 56 58 60 63 69 63 65 71 75 65 64 68 71 72 72 73 75 70 65 70 66 62 58 49 43 38 36 39 46 48
9 11 13 64 64 63 59 58 100 100 96 65 58 56 54 48 54 56 64 71 75 74 78 82 79 74 78 69 68 62 56 60 76 82 83 76 72 63 57 57 54 46 41 42 39 43 54 65 58
8 10 11 20 61 68 64 56 77 97 100 95 80 71 67 62 62 61 61 67 81 85 88 98 92 76 69 60 66 71 70 57 58 54 54 54 48 46 47 48 51 46 47 43 48 62 67 75 67
8 8 9 15 40 87 79 86 80 68 79 94 93 80 82 77 80 77 78 82 88 100 91 93 83 64 59 56 64 68 62 62 62 54 59 55 58 55 54 58 57 50 49 55 60 74 74 77 72
10 10 12 12 28 79 99 99 88 75 64 78 90 88 90 100 100 100 100 100 94 100 98 87 75 74 67 67 75 69 67 66 67 62 63 60 66 72 70 63 58 57 60 72 84 90 88 90 89
11 10 10 10 12 46 83 100 100 95 85 61 71 86 85 100 100 100 100 100 100 98 92 84 83 83 79 81 82 76 72 70 80 74 78 81 75 86 78 71 73 71 65 78 100 98 100 93 84
10 10 10 10 10 14 66 90 100 100 100 77 56 64 91 100 100 100 100 100 100 99 89 82 83 80 69 76 80 78 92 98 100 100 92 90 89 81 86 82 76 76 79 80 100 100 99 92 87
10 12 12 10 11 13 14 39 92 100 100 100 84 59 70 96 100 100 100 100 100 100 98 91 90 97 95 90 89 91 98 100 96 95 93 80 79 84 80 87 89 92 88 99 100 100 99 97 99
13 12 12 10 9 11 14 16 66 100 100 100 100 81 64 71 92 95 98 100 100 100 100 100 98 89 90 92 89 98 100 100 99 96 89 85 82 83 80 81 94 100 96 100 97 92 74 99 100
13 12 12 13 11 10 12 17 18 81 100 100 100 100 97 83 88 94 100 100 100 100 100 100 100 96 98 97 95 97 99 100 100 100 89 89 85 90 94 98 100 100 99 100 100 88 100 94 92
16 13 14 13 11 10 12 15 17 32 99 100 100 100 100 100 100 100 100 100 100 99 100 100 100 100 100 100 100 99 100 100 98 98 85 79 84 98 97 100 100 100 100 96 95 100 98 97 98
17 14 13 12 11 11 11 11 14 21 39 100 100 100 100 100 100 100 100 100 100 100 95 97 99 100 98 98 95 97 100 94 88 90 80 70 95 100 100 100 98 98 100 100 100 100 100 100 100
19 15 13 11 11 12 11 12 11 17 24 30 90 100 100 100 100 100 100 100 100 100 100 100 100 100 100 100 100 100 100 90 90 81 95 96 100 97 91 96 99 100 100 100 100 100 100 100 100
20 17 14 13 12 12 12 12 14 15 15 25 33 49 96 100 100 100 100 100 100 100 100 100 100 100 100 100 98 97 94 82 74 92 93 94 93 100 100 100 100 100 100 98 85 88 92 100 100
22 19 17 14 14 15 14 13 13 14 16 18 30 41 44 47 80 100 100 100 100 100 100 100 100 96 92 92 97 84 72 87 100 100 100 100 100 100 100 100 100 100 98 94 96 95 94 94 99
22 18 16 15 14 13 14 13 16 15 16 16 20 38 52 58 62 97 100 100 100 100 90 76 77 82 96 95 69 66 69 81 100 100 100 100 100 100 100 100 100 100 100 85 88 92 94 100 90
23 23 21 20 19 18 17 18 18 17 18 22 27 56 91 100 100 100 100 100 89 89 89 78 71 73 62 64 61 72 99 100 100 100 100 100 100 98 83 88 78 68 69 80 85 84 79 71 62

GFSSGP_250_rhum_078.txt.gz
RH
96 56 47 34 33 33 38 36 35 38 48 62 84 81 80 64 45 40 48 45 44 39 43 34 30 30 27 28 31 42 52 50 67 67 69 71 64 65 56 47 41 23 18 17 22 23 19 18 15
92 77 50 43 34 36 40 41 36 40 37 53 80 71 78 54 46 43 50 50 47 45 50 40 32 28 25 24 25 31 38 40 40 45 57 61 66 62 44 28 21 20 19 20 24 24 21 15 13
42 85 57 51 39 38 44 41 40 43 38 52 73 70 73 42 66 54 51 52 53 45 48 49 42 34 29 31 34 34 30 31 31 37 40 41 37 32 28 24 23 25 25 25 25 18 15 13 12
35 49 65 52 45 41 46 41 37 39 38 47 53 68 63 70 77 50 48 41 47 39 41 45 49 53 48 47 39 40 40 35 32 30 28 27 28 30 32 31 26 23 20 18 16 15 14 13 13
35 36 57 53 47 56 52 42 39 33 36 49 60 51 55 60 58 59 53 42 45 41 36 38 37 44 47 49 45 39 38 36 35 34 35 35 35 33 29 24 20 19 18 16 14 14 14 14 16
32 31 42 53 50 66 64 51 39 40 43 44 48 44 56 63 66 59 52 45 38 43 41 40 38 37 39 43 43 43 40 37 37 38 37 33 30 27 24 22 20 17 16 16 14 14 15 18 20
26 22 35 53 54 60 63 73 42 46 44 36 46 38 52 48 58 53 49 48 42 41 32 34 33 36 35 36 37 40 39 33 30 31 29 26 25 23 21 19 17 16 15 17 18 18 19 21 23
21 19 28 48 60 56 65 71 55 48 40 47 40 36 38 45 49 52 46 40 44 37 43 28 31 31 29 30 30 29 26 25 26 26 24 23 22 20 18 17 17 17 19 19 20 20 22 23 24
13 13 26 34 68 69 57 66 66 53 48 41 35 37 32 60 47 43 43 37 39 31 31 31 29 30 30 28 26 24 24 23 24 25 24 23 21 19 18 19 19 21 22 21 22 25 25 28 35
9 12 28 43 57 92 50 56 68 62 50 50 43 30 33 63 50 39 38 32 40 35 42 34 31 33 30 26 26 25 26 28 28 27 30 36 30 26 26 31 31 32 30 29 28 32 37 44 45
10 12 72 65 49 77 59 50 62 60 60 55 53 37 36 68 42 40 39 40 34 29 28 29 30 30 30 30 31 35 37 54 58 54 46 39 40 52 50 43 40 42 40 38 41 50 54 49 48
10 13 40 51 44 41 69 59 65 52 54 64 55 46 41 41 38 38 34 33 26 26 26 27 28 29 29 29 29 32 33 44 57 58 56 56 62 58 57 52 54 51 55 61 64 62 55 51 44
10 12 18 58 36 42 39 72 89 63 46 50 59 53 42 35 35 40 40 34 32 27 30 31 29 28 29 31 34 37 46 48 64 72 72 73 69 67 66 63 63 70 75 68 60 50 40 34 32
11 10 12 37 24 46 46 41 88 100 57 48 57 60 49 48 42 36 40 40 34 32 32 30 30 29 29 33 36 45 59 63 61 79 88 76 67 64 63 68 69 67 56 44 36 34 35 34 33
10 10 9 11 50 46 56 53 49 99 98 67 56 58 53 46 40 40 43 39 34 36 34 30 29 31 37 44 48 53 59 72 74 84 82 74 68 60 52 49 43 39 36 34 35 38 41 42 42
9 9 8 9 12 47 49 67 66 60 98 96 87 57 53 51 44 43 44 42 40 39 38 34 33 40 43 47 55 60 69 84 91 87 78 70 64 66 63 55 47 43 44 47 46 44 44 51 49
8 10 9 9 10 24 72 83 76 71 58 93 95 97 63 53 48 46 48 55 52 46 44 41 41 48 51 58 69 76 84 94 100 81 69 62 60 57 55 51 47 48 46 51 53 49 56 54 58
10 12 12 10 10 12 67 100 79 91 81 56 92 94 94 76 70 61 50 52 58 58 55 53 54 54 62 70 72 86 99 98 93 75 63 67 63 55 50 53 63 72 67 67 56 58 61 60 65
10 10 11 10 9 10 12 100 93 82 98 90 55 85 91 100 100 98 78 60 55 54 52 58 60 67 77 82 75 91 98 97 95 74 64 66 66 63 57 78 86 74 74 74 65 65 73 75 70
10 9 10 11 9 8 12 28 100 81 89 100 94 53 83 90 93 100 100 89 78 79 74 67 71 69 73 78 91 100 97 94 84 76 72 72 74 82 94 90 92 96 82 77 72 72 72 74 72
12 11 11 11 10 9 10 12 41 93 76 99 100 78 55 77 87 92 100 100 100 98 89 88 88 89 88 93 97 95 93 92 88 80 80 79 79 84 92 98 100 96 84 82 79 78 78 83 92
12 13 11 10 10 10 10 11 13 73 100 97 100 100 81 58 71 98 100 100 100 100 100 100 100 94 97 96 99 90 83 94 91 80 75 76 77 93 94 100 96 92 87 88 81 83 94 100 100
13 14 13 11 10 11 8 9 11 14 31 63 100 100 100 82 72 63 88 100 100 100 100 100 98 98 94 98 97 96 96 93 86 90 85 85 83 86 100 100 100 94 94 92 95 97 100 100 100
14 16 14 12 12 9 10 9 12 11 15 52 100 100 100 100 96 84 68 74 90 89 95 97 97 96 94 98 96 95 91 99 94 92 83 88 97 95 98 97 98 100 98 90 100 100 100 100 100
13 13 14 12 9 10 11 10 11 10 12 15 53 100 100 100 100 100 89 81 76 92 100 98 97 94 94 94 95 93 86 90 92 91 99 88 84 100 97 89 94 86 83 77 100 100 100 100 100
16 16 15 13 10 15 12 10 11 10 12 13 15 60 100 100 100 100 100 100 99 96 91 89 90 97 97 99 100 100 90 83 96 92 94 99 91 91 95 90 86 72 69 65 86 90 93 87 83
16 21 24 19 15 14 13 11 12 11 12 13 14 15 53 100 100 100 100 100 100 100 96 98 100 100 100 100 100 100 100 96 96 92 92 97 90 93 91 85 72 74 100 100 100 88 84 90 87
24 30 27 20 17 16 16 13 12 12 12 12 13 15 17 35 100 100 100 100 100 100 100 100 100 100 99 100 100 98 89 88 90 84 83 90 90 85 92 79 78 77 85 90 94 94 90 76 56
27 28 21 20 19 17 15 14 14 13 14 12 12 13 18 22 26 67 100 100 100 100 100 100 100 100 100 100 96 94 98 93 98 90 95 90 90 92 70 69 79 95 100 96 92 74 66 62 60
27 25 27 24 22 18 15 15 14 13 13 13 12 14 15 22 29 36 44 76 100 100 100 100 100 100 100 100 100 100 100 100 100 87 90 95 77 68 70 89 91 100 100 77 71 70 67 78 58